STARLINK-32344, 61719

Orbit data source: Space-Track

STARLINK-32344, 61719 is a payload satellite owned by SpaceX/Seattle (US) in LEO that was launched on Wed, 30 Oct 2024 UTC via an FALCON 9 launch vehicle from the Air Force Eastern Test Range (AFETR). Payloads include a variety of satellites, spacecraft, and rockets equipped with specific instruments for various scientific and technological missions. These include communications satellites like Starlink; space stations such as the ISS; scientific satellites like the Hubble; Earth observation satellites from companies like Planet Labs, Umbra, and HawkEye 360; GPS; miniature CubeSats for education and research; and military/defense satellites.

Loading next visibility...
STARLINK-32344 details
Identifier
61719, 2024-196N
Orbit
LEO
Last TLE update7 hours ago
Origin
Flag of USSpaceX/Seattle (US)
ManufacturerSpaceX/Seattle
MissionOperational spacecraft
Bus & MotorSTARLINK V2M, Unknown motor
Mass730 kg wet, ~700 kg dry
Launch date (UTC)
2024-10-30 (2 months ago)
Launch vehicle
FALCON 9
Launch site
Air Force Eastern Test Range (AFETR)
Object type
Payload
Rocket body
Debris
Shape & HBRUnknown
Radar Cross SectionLarge (>1 m²)

Expand to show TLE details & history

TLE from 7 hours ago
0 STARLINK-32344
1 61719U 24196N   24361.15430124  .00000326  00000-0  18132-4 0  9992
2 61719  53.1630 340.5157 0001412 103.4233 256.6930 15.39611106 10008
Epoch: 2024-12-26T03:42Z
Definitive object data (Epoch: 2024-12-26T03:42:11.627Z)
Latitude0.00005°
Longitude-170.17048°
Altitude448.384 km
Speed7.644 km/s
True Right ascension22h 42m 03s
True Declination0° 00' 00"
Sunlit
Object was in daylight at TLE epoch
Visualization TLE readout
Latitude50.19432°
Longitude-54.85665°
Altitude452.156 km
Speed7.648 km/s
Apparent Right ascension01h 37m 05s
Apparent Declination16° 09' 38"
Sunlit
Object is in full shadow
Visualization observer readout
Local Sidereal Time09:44:57
Azimuth303.523° NW
Elevation-12.207°
Doppler factor1
Orbital elements
Apogee altitude448.479 km
Perigee altitude446.552 km
Semi-major axis6,825.652 km
Eccentricity0.0001412
Inclination53.163°
RAAN340.5157°
Arg. of periapsis103.4233°
True anomaly256.67725°
Mean anomaly256.693°
Eccentric anomaly256.68513°
Mean motion3.84881 °/min
BSTAR0.000018132
Orbital period93.54 mins
Loading maneuver chart data...
Loading historical data...
Loading historical data...
Loading historical data...
Loading historical data...
Loading historical data...
Loading historical data...
Loading historical data...

STARLINK-32344 Visibility forecast

Observer location: undefined°, undefined

Span
Click to sort rows by Start time (UTC) header in descending order
Start Az.
Max El. time (UTC)
Max El. Az.
Max El.
End time (UTC)
End Az.
5 mins2024-12-27 01:42:46.893Z238.05° WSW2024-12-27 01:44:46.893Z281.377° WNW43.092°2024-12-27 01:47:46.893Z45.497° ENE
5 mins2024-12-27 08:15:46.893Z312.337° NW2024-12-27 08:17:46.893Z108.82° ESE44.341°2024-12-27 08:20:46.893Z129.211° SE
|